Regional Weather Roundup
Issued by NWS

Home | Current Version | Previous Version | Graphics & Text | Print | Product List | Glossary On
Versions: 1 2 3 4 5 6 7 8 9 10 11 12 13 14 15 16 17 18 19 20 21 22 23 24 25 26 27 28 29 30 31 32 33 34 35 36 37 38 39 40 41 42 43 44 45 46 47 48 49 50
000
ASUS43 KMPX 031810
RWRMN
WEATHER ROUNDUP FOR MINNESOTA
NATIONAL WEATHER SERVICE TWIN CITIES/CHANHASSEN MN
100 PM CDT MON AUG 03 2015


NOTE: "FAIR" INDICATES FEW OR NO CLOUDS BELOW 12,000 FEET WITH NO
SIGNIFICANT WEATHER AND/OR OBSTRUCTIONS TO VISIBILITY. N/A MEANS
CURRENT SKY AND/OR WEATHER CONDITIONS ARE NOT AVAILABLE.

MNZ060>063-068>070-031900-
   Twin Cities Metro

CITY           SKY/WX    TMP DP  RH WIND       PRES   REMARKS
TWIN CITIES    MOSUNNY   76  48  37 NW14      29.91F
6HR MIN TEMP:  62; 6HR MAX TEMP:  76;

ST PAUL        SUNNY     76  47  35 NW15G24   29.91S
CRYSTAL        SUNNY     77  49  37 W13       29.90F
BLAINE         MOSUNNY   75  50  41 NW15      29.91S
LAKEVILLE      SUNNY     73  52  46 W7        29.92F
EDEN PRAIRIE   SUNNY     76  49  38 W8G18     29.91F
6HR MIN TEMP:  63; 6HR MAX TEMP:  78;

SOUTH ST PAUL  MOSUNNY   76  45  33 W10G18    29.91S
LAKE ELMO      FAIR      73  50  43 NW12G17   29.92S
$$
MNZ001>005-007-008-013>017-022>024-027-028-031900-
   Northwest Minnesota

CITY           SKY/WX    TMP DP  RH WIND       PRES   REMARKS
BEMIDJI        CLOUDY    67  50  52 W17G25    29.91R
HALLOCK        MOSUNNY   72  52  49 NW12G23   29.92F
ROSEAU         PTSUNNY   66  54  63 NW14G20   29.90R
WARROAD        PTSUNNY   64  54  68 NW15      29.89F
THIEF RVR FALL MOSUNNY  N/A N/A N/A NW13G23   29.92F
CROOKSTON      MOSUNNY   72  52  49 N16G23    29.94S
FOSSTON        PTSUNNY   70  50  49 NW13G21   29.93S
DETROIT LAKES  SUNNY     72  43  35 NW16      29.96S
MOORHEAD       SUNNY     73  48  40 NW15      29.95S
PARK RAPIDS    PTSUNNY   74  47  38 NW18G28   29.92S
MAHNOMEN       MOCLDY    70  51  51 NW13G23   29.94S
$$
MNZ006-009>011-018-025>026-031900-
   North Central Minnesota

CITY           SKY/WX    TMP DP  RH WIND       PRES   REMARKS
BAUDETTE       CLOUDY    64  52  64 NW13      29.87S
FLAG ISLAND    CLOUDY    63  54  72 NW17      29.85F
INTL FALLS     CLOUDY    64  54  69 NW16G22   29.84S
6HR MIN TEMP:  59; 6HR MAX TEMP:  66; 6HR PCP:  0.01;

WASKISH        CLOUDY    66  54  63 W10       29.88S
BIG FORK       MOSUNNY   66  52  59 W8        29.87S
LONGVILLE      CLOUDY    70  52  52 W10G16    29.90S
GRAND RAPIDS   CLOUDY    66  48  52 NW15      29.89R
CRANE LAKE     CLOUDY    59  55  88 W5        29.84S
ORR            CLOUDY    64  52  63 NW9G18    29.82S
COOK           PTSUNNY   63  55  77 W14G21    29.86S HAZE
WALKER         CLOUDY    69  50  51 NW10G17   29.91R
$$
MNZ012-019>021-037-031900-
   Northeast Minnesota

CITY           SKY/WX    TMP DP  RH WIND       PRES   REMARKS
DULUTH         PTSUNNY   67  51  56 NW13      29.85F
6HR MIN TEMP:  59; 6HR MAX TEMP:  69;

ELY            PTSUNNY   64  48  55 NW9G18    29.82S
HIBBING        CLOUDY    67  53  61 W12G21    29.86S
EVELETH        MOSUNNY   64  50  59 W12G21    29.86F
DULUTH HARBOR  CLOUDY    72  55  56 W15       29.84S
TWO HARBORS    CLOUDY    70  55  60 NW8G18    29.82S
SILVER BAY     PTSUNNY   72  52  49 W7        29.79S
GRAND MARAIS     N/A     69  51  52 VRB7      29.75R
G MARAIS ARPRT SUNNY     66  48  52 W12G18    29.79S
$$
MNZ029>031-032-039>041-046>048-054>057-064-031900-
   West Central Minnesota

CITY           SKY/WX    TMP DP  RH WIND       PRES   REMARKS
FERGUS FALLS   SUNNY     73  50  43 N15G21    29.94F
WHEATON        MOSUNNY   73  54  49 W12       29.97F
MORRIS         SUNNY     75  54  46 NW13      29.95F
ALEXANDRIA     SUNNY     74  47  38 W18       29.96F
ELBOW LAKE     FAIR      73  51  45 NW12      29.95F
WADENA         SUNNY     73  46  38 NW13G18   29.93F
GLENWOOD       SUNNY     73  52  46 W15G21    29.96S
APPLETON       SUNNY     77  46  33 NW14G20   29.95F
BENSON         SUNNY     77  46  33 N13       29.96S
ORTONVILLE     SUNNY     75  46  35 NW13      29.96F
MADISON        SUNNY     75  50  41 NW10      29.97F
WILLMAR        FAIR      77  48  36 NW14G20   29.97S
$$
MNZ033>034-036-042>043-049>051-058-059-031900-
   Central Minnesota

CITY           SKY/WX    TMP DP  RH WIND       PRES   REMARKS
ST CLOUD       MOSUNNY   75  48  38 NW13G22   29.92F
6HR MIN TEMP:  56; 6HR MAX TEMP:  76;

SAUK CENTRE    FAIR      73  48  41 NW16      29.94F
PAYNESVILLE    SUNNY     73  48  40 W12       29.95S
AITKIN         PTSUNNY   72  52  49 NW8       29.88F
PINE RIVER     MOSUNNY   72  50  46 NW13G21   29.93F
BRAINERD       PTSUNNY   73  46  38 NW15G24   29.91S
STAPLES        MOSUNNY   73  43  33 NW14G25   29.92F
LONG PRAIRIE   FAIR      72  50  46 W12       29.94F
LITTLE FALLS     N/A     73  43  33 W15       29.92S
LITCHFIELD     SUNNY     75  52  43 W7        29.95S
BUFFALO        SUNNY     74  45  35 W10G18    29.94S
MAPLE LAKE     SUNNY     75  52  43 NW8       29.94S
$$
MNZ037-044-045-052-053-031900-
   East Central Minnesota

CITY           SKY/WX    TMP DP  RH WIND       PRES   REMARKS
PRINCETON      SUNNY     75  48  38 NW10G20   29.91F
MORA           SUNNY     72  48  43 NW14      29.91F
CAMBRIDGE      SUNNY     77  54  44 NW17      29.89S
RUSH CITY      SUNNY     73  50  45 NW10G24   29.90S
MOOSE LAKE     CLOUDY    68  50  52 W13G18    29.86S
HINCKLEY       MOCLDY    72  52  49 NW10G16   29.89S
CLOQUET        CLOUDY    68  48  49 W12G18    29.86F
MCGREGOR       CLOUDY    68  50  52 NW13G21   29.89S
$$
MNZ071>073-080-081-089-090-097-098-031900-
   Southwest Minnesota

CITY           SKY/WX    TMP DP  RH WIND       PRES   REMARKS
MONTEVIDEO     SUNNY     79  55  44 N9        29.98F
GRANITE FALLS  SUNNY     75  53  46 W9G17     29.98F
CANBY          SUNNY     77  54  44 NW9       29.99S
MARSHALL       SUNNY     77  48  36 NW15      29.99F
REDWOOD FALLS  SUNNY     79  49  34 NW12      29.96S
OLIVIA         SUNNY     72  48  43 NW10G16   29.96S
PIPESTONE      SUNNY     75  54  46 W9        30.00F
WINDOM         SUNNY     77  52  41 W9        29.98F
WORTHINGTON    MOSUNNY   75  52  43 NW7       30.00S
JACKSON        SUNNY     77  54  44 NW13      29.99F
TRACY          SUNNY     75  55  50 NW6       29.99S
SLAYTON        MOSUNNY   76  53  43 NW5       30.01S
$$
MNZ065>067-074>077-082>085-091>093-031900-
   South Central Minnesota

CITY           SKY/WX    TMP DP  RH WIND       PRES   REMARKS
MANKATO        SUNNY     75  50  41 NW14G21   29.95S
NEW ULM        SUNNY     77  46  33 NW17      29.95F
FAIRMONT       SUNNY     75  50  41 NW12G17   29.97S
GLENCOE        SUNNY     76  56  49 NW9       29.94S
FARIBAULT      SUNNY     73  54  49 NW8       29.94S
OWATONNA       SUNNY     75  48  38 NW16      29.95S
WASECA         SUNNY     73  52  46 W10       29.96F
ALBERT LEA     MOSUNNY   75  54  46 NW8G18    29.95F
$$
MNZ078>079-086>088-094>096-031900-
   Southeast Minnesota

CITY           SKY/WX    TMP DP  RH WIND       PRES   REMARKS
ROCHESTER      SUNNY     73  54  51 NW12G22   29.95S
6HR MIN TEMP:  55; 6HR MAX TEMP:  73;

RED WING       SUNNY     79  45  29 N10G17    29.89F
STANTON        SUNNY     75  52  43 W13       29.91F
DODGE CENTER   SUNNY     73  48  40 NW12      29.95S
WINONA         SUNNY     77  46  33 W13G20    29.90F
AUSTIN         SUNNY     75  52  43 W15       29.95F
PRESTON        SUNNY     73  52  47 NW13      29.95S
$$
ABBREVIATIONS USED IN REMARKS
   TC - TEMPERATURES IN CELSIUS
  WCI - WIND CHILL INDEX
   HX - HEAT INDEX
  VSB - VISIBILITY
$$


USA.gov is the U.S. government's official web portal to all federal, state and local government web resources and services.